When you browse on this site, cookies collect data to enhance your experience and personalize the content and advertising you see.
Visit our Privacy Policy to learn more. By continuing to use the site, you agree to this use of cookies and data.
  • In France
  • List of Countries
  • For 7 days
  • Water Temperature
  • Weather Map
  • Weather Widgets
  • user-avatar
    Login

    Hourly Weather Radzikowo

    Today, 14 October, Monday

    Time Temperature Precipitation Wind Pressure Humidity
    00:00 +17°C° 0.1 mm 6 mps 748 mmHg 77%
    01:00 +17°C° 0.1 mm 6 mps 748 mmHg 74%
    02:00 +16°C° 0 mm 6 mps 748 mmHg 76%
    03:00 +16°C° 0 mm 6 mps 748 mmHg 77%
    04:00 +16°C° 0 mm 6 mps 748 mmHg 79%
    05:00 +16°C° 0 mm 5 mps 748 mmHg 82%
    06:00 +16°C° 0 mm 5 mps 749 mmHg 84%
    07:00 +16°C° 0 mm 5 mps 749 mmHg 86%
    08:00 +16°C° 0 mm 6 mps 750 mmHg 82%
    09:00 +16°C° 0 mm 7 mps 750 mmHg 78%
    10:00 +17°C° 0 mm 8 mps 750 mmHg 74%
    11:00 +16°C° 0 mm 7 mps 751 mmHg 72%
    12:00 +16°C° 0 mm 7 mps 751 mmHg 69%
    13:00 +16°C° 0 mm 7 mps 752 mmHg 67%
    14:00 +15°C° 0 mm 6 mps 752 mmHg 70%
    15:00 +15°C° 0 mm 5 mps 752 mmHg 73%
    16:00 +14°C° 0 mm 4 mps 752 mmHg 76%
    17:00 +13°C° 0 mm 3 mps 752 mmHg 81%
    18:00 +13°C° 0 mm 2 mps 753 mmHg 86%
    19:00 +12°C° 0 mm 1 mps 753 mmHg 91%
    20:00 +11°C° 0 mm 1 mps 753 mmHg 90%
    21:00 +11°C° 0 mm 1 mps 753 mmHg 90%
    22:00 +11°C° 0 mm 1 mps 753 mmHg 89%
    23:00 +11°C° 0 mm 1 mps 753 mmHg 87%

    Tomorrow, 15 October, Tuesday

    Time Temperature Precipitation Wind Pressure Humidity
    00:00 +10°C° 0 mm 2 mps 753 mmHg 86%
    01:00 +10°C° 0 mm 2 mps 753 mmHg 84%
    02:00 +10°C° 0 mm 3 mps 753 mmHg 83%
    03:00 +10°C° 0 mm 3 mps 752 mmHg 82%
    04:00 +10°C° 0 mm 4 mps 752 mmHg 81%
    05:00 +10°C° 0 mm 4 mps 752 mmHg 81%
    06:00 +10°C° 0 mm 4 mps 752 mmHg 81%
    07:00 +9°C° 0 mm 5 mps 751 mmHg 81%
    08:00 +12°C° 0 mm 5 mps 751 mmHg 78%
    09:00 +14°C° 0 mm 5 mps 751 mmHg 76%
    10:00 +15°C° 0 mm 5 mps 750 mmHg 73%
    11:00 +16°C° 0 mm 5 mps 750 mmHg 71%
    12:00 +18°C° 0 mm 4 mps 749 mmHg 68%
    13:00 +19°C° 0 mm 4 mps 749 mmHg 66%
    14:00 +19°C° 0 mm 4 mps 748 mmHg 69%
    15:00 +18°C° 0 mm 3 mps 747 mmHg 71%
    16:00 +18°C° 0 mm 3 mps 747 mmHg 74%
    17:00 +17°C° 0 mm 3 mps 746 mmHg 76%
    18:00 +16°C° 0 mm 3 mps 746 mmHg 78%
    19:00 +14°C° 0 mm 3 mps 746 mmHg 80%
    20:00 +14°C° 0 mm 3 mps 746 mmHg 81%
    21:00 +14°C° 0 mm 4 mps 746 mmHg 81%
    22:00 +14°C° 0 mm 4 mps 745 mmHg 81%
    23:00 +14°C° 0 mm 4 mps 745 mmHg 81%

    Day after tomorrow, 16 October, Wednesday

    Time Temperature Precipitation Wind Pressure Humidity
    00:00 +14°C° 0 mm 4 mps 745 mmHg 81%
    01:00 +13°C° 0 mm 4 mps 745 mmHg 80%
    02:00 +13°C° 0 mm 4 mps 744 mmHg 81%
    03:00 +13°C° 0 mm 3 mps 744 mmHg 82%
    04:00 +12°C° 0 mm 3 mps 744 mmHg 82%
    05:00 +12°C° 0 mm 3 mps 744 mmHg 84%
    06:00 +12°C° 0 mm 3 mps 744 mmHg 86%
    07:00 +12°C° 0 mm 3 mps 744 mmHg 87%
    08:00 +13°C° 0 mm 4 mps 744 mmHg 86%
    09:00 +14°C° 0 mm 5 mps 744 mmHg 85%
    10:00 +15°C° 0 mm 6 mps 745 mmHg 84%
    11:00 +15°C° 0 mm 6 mps 745 mmHg 82%
    12:00 +14°C° 0 mm 6 mps 746 mmHg 80%
    13:00 +14°C° 0 mm 6 mps 746 mmHg 78%
    14:00 +14°C° 0 mm 6 mps 747 mmHg 75%
    15:00 +14°C° 0 mm 5 mps 747 mmHg 72%
    16:00 +13°C° 0 mm 5 mps 747 mmHg 69%
    17:00 +13°C° 0 mm 5 mps 747 mmHg 70%
    18:00 +12°C° 0 mm 5 mps 748 mmHg 70%
    19:00 +12°C° 0 mm 5 mps 748 mmHg 71%
    20:00 +11°C° 0 mm 6 mps 748 mmHg 71%
    21:00 +11°C° 0 mm 6 mps 748 mmHg 71%
    22:00 +11°C° 0 mm 6 mps 748 mmHg 71%
    23:00 +10°C° 0.2 mm 7 mps 748 mmHg 74%

    17 October, Thursday

    Time Temperature Precipitation Wind Pressure Humidity
    00:00 +10°C° 0.2 mm 7 mps 747 mmHg 77%
    01:00 +10°C° 0.2 mm 7 mps 747 mmHg 80%
    02:00 +11°C° 0.4 mm 7 mps 747 mmHg 81%
    03:00 +11°C° 0.4 mm 7 mps 747 mmHg 81%
    04:00 +11°C° 0.4 mm 7 mps 747 mmHg 82%
    05:00 +11°C° 0.1 mm 7 mps 748 mmHg 83%
    06:00 +11°C° 0.1 mm 6 mps 748 mmHg 85%
    07:00 +11°C° 0.1 mm 6 mps 748 mmHg 87%
    08:00 +12°C° 0 mm 5 mps 749 mmHg 86%
    09:00 +12°C° 0 mm 5 mps 749 mmHg 85%
    10:00 +13°C° 0 mm 4 mps 750 mmHg 85%
    11:00 +13°C° 0 mm 4 mps 750 mmHg 83%
    12:00 +13°C° 0 mm 4 mps 751 mmHg 82%
    13:00 +14°C° 0 mm 4 mps 751 mmHg 81%
    14:00 +13°C° 0 mm 3 mps 751 mmHg 83%
    15:00 +13°C° 0 mm 3 mps 751 mmHg 85%
    16:00 +12°C° 0 mm 3 mps 751 mmHg 88%
    17:00 +13°C° 0.1 mm 2 mps 752 mmHg 88%
    18:00 +13°C° 0.1 mm 2 mps 752 mmHg 89%
    19:00 +13°C° 0.1 mm 1 mps 752 mmHg 89%
    20:00 +13°C° 0 mm 1 mps 752 mmHg 88%
    21:00 +13°C° 0 mm 1 mps 752 mmHg 87%
    22:00 +13°C° 0 mm 1 mps 753 mmHg 86%
    23:00 +13°C° 0 mm 2 mps 753 mmHg 85%

    18 October, Friday

    Time Temperature Precipitation Wind Pressure Humidity
    00:00 +13°C° 0 mm 2 mps 753 mmHg 85%
    01:00 +13°C° 0 mm 2 mps 753 mmHg 85%
    02:00 +12°C° 0 mm 2 mps 753 mmHg 85%
    03:00 +12°C° 0 mm 2 mps 753 mmHg 84%
    04:00 +12°C° 0 mm 2 mps 753 mmHg 84%
    05:00 +12°C° 0 mm 2 mps 753 mmHg 86%
    06:00 +10°C° 0 mm 2 mps 753 mmHg 87%
    07:00 +10°C° 0 mm 2 mps 753 mmHg 89%
    08:00 +12°C° 0 mm 2 mps 753 mmHg 84%
    09:00 +13°C° 0 mm 2 mps 754 mmHg 80%
    10:00 +15°C° 0 mm 2 mps 754 mmHg 75%
    11:00 +16°C° 0 mm 3 mps 754 mmHg 72%
    12:00 +16°C° 0 mm 3 mps 754 mmHg 70%
    13:00 +17°C° 0 mm 4 mps 754 mmHg 67%
    14:00 +15°C° 0 mm 4 mps 754 mmHg 69%
    15:00 +14°C° 0 mm 4 mps 754 mmHg 72%
    16:00 +13°C° 0 mm 4 mps 754 mmHg 75%
    17:00 +12°C° 0 mm 3 mps 754 mmHg 81%
    18:00 +12°C° 0 mm 2 mps 755 mmHg 86%
    19:00 +10°C° 0 mm 2 mps 755 mmHg 91%
    20:00 +10°C° 0 mm 1 mps 755 mmHg 92%
    21:00 +10°C° 0 mm 1 mps 755 mmHg 92%
    22:00 +10°C° 0 mm 1 mps 755 mmHg 93%
    23:00 +10°C° 0 mm 1 mps 755 mmHg 92%

    19 October, Saturday

    Time Temperature Precipitation Wind Pressure Humidity
    00:00 +10°C° 0 mm 1 mps 755 mmHg 91%
    01:00 +9°C° 0 mm 1 mps 755 mmHg 90%
    02:00 +10°C° 0 mm 1 mps 755 mmHg 88%
    03:00 +10°C° 0 mm 1 mps 755 mmHg 87%
    04:00 +10°C° 0 mm 1 mps 755 mmHg 86%
    05:00 +9°C° 0 mm 2 mps 755 mmHg 85%
    06:00 +9°C° 0 mm 2 mps 755 mmHg 84%
    07:00 +9°C° 0 mm 2 mps 755 mmHg 83%
    08:00 +10°C° 0 mm 2 mps 755 mmHg 78%
    09:00 +12°C° 0 mm 2 mps 755 mmHg 74%
    10:00 +14°C° 0 mm 2 mps 754 mmHg 69%
    11:00 +14°C° 0 mm 3 mps 754 mmHg 66%
    12:00 +16°C° 0 mm 3 mps 754 mmHg 64%
    13:00 +17°C° 0 mm 3 mps 754 mmHg 62%
    14:00 +16°C° 0 mm 3 mps 753 mmHg 65%
    15:00 +16°C° 0 mm 3 mps 753 mmHg 68%
    16:00 +14°C° 0 mm 3 mps 752 mmHg 72%
    17:00 +13°C° 0 mm 3 mps 752 mmHg 76%
    18:00 +12°C° 0 mm 3 mps 752 mmHg 81%
    19:00 +11°C° 0 mm 3 mps 752 mmHg 85%
    20:00 +12°C° 0 mm 3 mps 752 mmHg 85%
    21:00 +12°C° 0 mm 3 mps 751 mmHg 85%
    22:00 +12°C° 0 mm 3 mps 751 mmHg 85%
    23:00 +12°C° 0 mm 3 mps 751 mmHg 87%
    Show more